This demonstration page uses our WeatherBlox Daily Observations layout. Learn more.

Left ArrowRight Arrow

39.12711, -84.51439

Hourly Observations for July 20, 2021

Temp ( °F °C ) Dew Point ( °F °C ) Humidity (%) Winds ( mph kmh ) Pressure ( in mb ) Visibility ( mi km ) Precip ( " mm )
12:53 am 00:53 Clear 65 18.3 63 17.2 93 93 N N/A 30.08 1019 8 13 N/A
1:53 am 01:53 Clear 65 18.3 63 17.2 93 93 N N/A 30.07 1018 7 11 N/A
2:53 am 02:53 Clear with Mist and Fog 65 18.3 63 17.2 93 93 N N/A 30.05 1018 6 10 N/A
3:53 am 03:53 Clear with Mist and Fog 64 17.8 63 17.2 96 96 N N/A 30.05 1018 6 10 N/A
4:53 am 04:53 Clear with Mist and Fog 64 17.8 63 17.2 96 96 N N/A 30.03 1017 5 8 N/A
5:53 am 05:53 Clear with Mist and Fog 64 17.8 62 16.7 93 93 N N/A 30.04 1017 6 10 N/A
6:53 am 06:53 Sunny with Mist and Fog 64 17.8 62 16.7 93 93 N N/A 30.06 1018 5 8 N/A
7:53 am 07:53 Sunny with Mist and Fog 66 18.9 64 17.8 93 93 N N/A 30.06 1018 4 6 N/A
8:53 am 08:53 Hazy 71 21.7 66 18.9 84 84 N N/A 30.06 1018 6 10 N/A
9:53 am 09:53 Hazy 75 23.9 67 19.4 76 76 ENE 3 6 30.07 1018 6 10 N/A
10:53 am 10:53 Sunny 79 26.1 67 19.4 67 67 E 3 6 30.07 1018 8 13 N/A
11:53 am 11:53 Mostly Sunny 81 27.2 66 18.9 61 61 E 3 6 30.06 1018 7 11 N/A
12:53 pm 12:53 Sunny 82 27.8 67 19.4 60 60 E 5 7 30.04 1017 7 11 N/A
1:53 pm 13:53 Mostly Cloudy with Haze 84 28.9 66 18.9 55 55 N N/A 30.03 1017 6 10 N/A
2:53 pm 14:53 Hazy 85 29.4 66 18.9 53 53 N N/A 30.01 1016 5 8 N/A
3:53 pm 15:53 Hazy 85 29.4 66 18.9 53 53 N N/A 29.98 1015 5 8 N/A
4:53 pm 16:53 Hazy 85 29.4 66 18.9 53 53 N N/A 29.98 1015 5 8 N/A
5:53 pm 17:53 Mostly Cloudy with Haze 85 29.4 66 18.9 53 53 N N/A 29.97 1015 5 8 N/A
6:53 pm 18:53 Partly Cloudy 84 28.9 66 18.9 55 55 WNW 9 15 29.96 1015 7 11 N/A
7:53 pm 19:53 Sunny 82 27.8 63 17.2 53 53 NW 9 15 29.98 1015 8 13 N/A
8:53 pm 20:53 Sunny 80 26.7 64 17.8 58 58 NW 7 11 29.98 1015 7 11 N/A
9:53 pm 21:53 Clear 77 25 65 18.3 66 66 WNW 5 7 29.99 1016 9 14 N/A
10:53 pm 22:53 Clear 71 21.7 66 18.9 84 84 N N/A 30.01 1016 9 14 N/A
11:53 pm 23:53 Clear 69 20.6 65 18.3 87 87 N N/A 30.01 1016 8 13 N/A

Powered by AerisWeather